Location: *
(45.9500°N, 9.0833°E)
Time: 07:13:56
(UTC+00:00)

Cosmos 2333 Rocket - Pass Details

Date: 03 March 2021
Orbit: 837 x 864 km, 70.8° (Epoch: 18 April)

Event Time Altitude Azimuth Distance (km) Brightness Sun altitude
Rises 18:46:38 0° 185° (S) 3,384 5.3 -17.0°
Reaches altitude 10° 18:49:09 10° 179° (S) 2,457 4.5 -17.4°
Maximum altitude 18:54:28 45° 108° (ESE) 1,149 2.4 -18.4°
Drops below altitude 10° 18:59:52 10° 38° (NE) 2,491 4.4 -19.3°
Sets 19:02:26 0° 32° (NNE) 3,435 5.2 -19.7°
